This is the latest recevied weather packets stored in our database for station/object KD4KKF. If no packets are shown the sender has not sent any weather packets the latest 10 day(s).
| Time | Temp. | Humidity | Pressure | Rain* | Wind** | Luminosity | Snow |
|---|---|---|---|---|---|---|---|
| 1777989231 | 18.89° C | 79% | 1013 hPa | 0 mm | - | 483 W/m² | - |
| 1777988927 | 18.33° C | 81% | 1013.2 hPa | 0 mm | - | 429 W/m² | - |
| 1777988624 | 17.78° C | 80% | 1013 hPa | 0 mm | - | 407 W/m² | - |
| 1777988321 | 17.78° C | 83% | 1013 hPa | 0 mm | - | 246 W/m² | - |
| 1777988017 | 18.33° C | 81% | 1013.2 hPa | 0 mm | - | 215 W/m² | - |
| 1777987713 | 18.33° C | 79% | 1013.2 hPa | 0 mm | - | 358 W/m² | - |
| 1777987411 | 17.78° C | 83% | 1013.2 hPa | 0 mm | - | 329 W/m² | - |
| 1777987107 | 17.78° C | 80% | 1013 hPa | 0 mm | - | 148 W/m² | - |
| 1777986805 | 17.22° C | 82% | 1013.2 hPa | 0 mm | - | 91 W/m² | - |
| 1777986503 | 17.78° C | 81% | 1013 hPa | 0 mm | - | 230 W/m² | - |
| 1777986200 | 17.78° C | 81% | 1013 hPa | 0 mm | - | 281 W/m² | - |
| 1777985897 | 17.22° C | 82% | 1013.1 hPa | 0 mm | - | 267 W/m² | - |
| 1777985595 | 17.78° C | 82% | 1013 hPa | 0 mm | - | 111 W/m² | - |
| 1777985291 | 17.22° C | 82% | 1013.1 hPa | 0 mm | - | 212 W/m² | - |
| 1777984988 | 16.67° C | 84% | 1013.1 hPa | 0 mm | - | 186 W/m² | - |
| 1777984684 | 16.67° C | 83% | 1012.9 hPa | 0 mm | - | 140 W/m² | - |
| 1777984381 | 16.11° C | 86% | 1013.1 hPa | 0 mm | - | 143 W/m² | - |
| 1777984077 | 16.11° C | 88% | 1012.8 hPa | 0 mm | - | 87 W/m² | - |
| 1777983775 | 15° C | 90% | 1012.9 hPa | 0 mm | - | 76 W/m² | - |
| 1777983471 | 14.44° C | 93% | 1012.9 hPa | 0 mm | - | 84 W/m² | - |
| 1777983168 | 13.89° C | 95% | 1012.8 hPa | 0 mm | - | 64 W/m² | - |
| 1777982864 | 13.89° C | 96% | 1012.7 hPa | 0 mm | - | 56 W/m² | - |
| 1777982560 | 13.33° C | 99% | 1012.8 hPa | 0 mm | - | 52 W/m² | - |
| 1777982259 | 12.22° C | 99% | 1012.4 hPa | 0 mm | - | 48 W/m² | - |
| 1777981957 | 11.67° C | 99% | 1012.4 hPa | 0 mm | - | 42 W/m² | - |
* Rain latest hour (hover to see other rain measurements)
** Current wind speed in m/s (hover to see current wind gust speed)